Regional Weather Roundup
Issued by NWS Charleston, SC

Current Version | Previous Version | Graphics & Text | Print | Product List | Glossary On
Versions: 1 2 3 4 5 6 7 8 9 10 11 12 13 14 15 16 17 18 19 20 21 22 23 24 25 26 27 28 29 30 31 32 33 34 35 36 37 38 39 40 41 42 43 44 45 46 47 48 49 50
000
ASUS42 KCHS 211927
RWRCHS

Regional Weather Roundup
National Weather Service Charleston SC
200 PM EST SUN JAN 21 2018

NOTE: "fair" indicates few or no clouds below 12,000 feet with no
significant weather and/or obstructions to visibility.

Not all stations are quality controlled. Use data with caution,
especially dewpoint observations.

SCZ027-030-031-034>040-042>050-212000-
...Southeast South Carolina...

CITY           SKY/WX    TMP DP  RH WIND       PRES   REMARKS
N Charleston   FAIR      70  40  33 W3        30.20F
Waterfront Prk NOT AVBL
Mount Pleasant FAIR      64  43  45 E7        30.21F
Johns Island   FAIR      61  41  48 SE7       30.21F
Pinopolis        N/A     52  45  76 N6        30.13F
Moncks Corner  FAIR      66  36  32 N3        30.20F
Summerville    FAIR      68  37  32 CALM      30.21F
Beaufort MCAS  FAIR      66  45  46 SE5       30.21F
Beaufort Arpt  FAIR      64  41  42 S7        30.21F
Hilton Head Is SUNNY     59  39  47 SE5       30.24F
Walterboro     FAIR      68  39  34 CALM      30.21F
Allendale      FAIR      66  41  39 VRB3      30.20F

...Southern Midlands and Pee Dee...

CITY           SKY/WX    TMP DP  RH WIND       PRES   REMARKS
Georgetown     FAIR      61  36  39 E7        30.23F
Kingstree      FAIR      68  36  30 E6        30.21F
Orangeburg     FAIR      68  39  34 VRB3      30.20F
Barnwell         N/A     70  45  40 SW6       30.20F
Aiken          FAIR      68  41  37 S8        30.23F
Manning        FAIR     N/A N/A N/A MISG      30.21F
Columbia       FAIR      71  39  31 S7        30.20F
Sumter         FAIR      69  40  34 NW5       30.18F
Florence       FAIR      67  39  35 CALM      30.21F
Myrtle Beach   FAIR      60  38  43 S9        30.24S
N Myrtle Beach FAIR      60  37  42 S7        30.22F

$$

GAZ063-065-086>088-099>101-113>116-118-119-134>141-150-212000-
...Southeast Georgia...

CITY           SKY/WX    TMP DP  RH WIND       PRES   REMARKS
Savannah Arpt  FAIR      69  40  34 CALM      30.21F
Hunter AAF     FAIR      69  42  37 SW5       30.18F
Fort Stewart   FAIR      69  40  35 NW5       30.19F
Statesboro     FAIR      70  34  26 CALM      30.21F
Sylvania       FAIR      69  46  43 CALM      30.22F
Claxton        FAIR      71  43  36 SE3       30.21F

...CSRA, Central and far Southeast Georgia...

CITY           SKY/WX    TMP DP  RH WIND       PRES   REMARKS
Thomson        FAIR      70  44  38 NE7       30.25F
Augusta-Bush   FAIR      70  43  37 SE7       30.20F
Augusta-Daniel FAIR      69  42  37 CALM      30.21F
Swainsboro     FAIR      70  43  37 CALM      30.21F
Vidalia        FAIR      70  43  37 CALM      30.21F
Eastman        FAIR      70  21  15 CALM      30.23F
Hazlehurst     FAIR      71  27  19 CALM      30.20F
Alma           FAIR      70  40  33 VRB5      30.21
Waycross       FAIR      70  31  23 W6        30.21F
Jesup          FAIR      72  37  28 CALM      30.21F
Baxley         FAIR      68  39  34 NW3       30.20F
Brunswick      FAIR      68  36  30 SE7       30.21F
Saint Simons   FAIR      63  34  33 E6        30.22F

$$

SCZ027-028-034-036>038-045-046-048>050-GAZ119-141-212000-
...Lake and Supplemental Coastal Observations...

STATION/POSITION TIME  TEMP    WIND        PRES    WAVE   SWELL
                       AIR SEA DIR/SP/G            HT/PER HT/PER/DIR
                 (UTC) (F)     (DEG/KT/KT) (MB)    (FT/S) (FT/S/D)
Winyah Bay       1830   52     130/  6     1024.0F
Lake Murray      1920   65        CALM     1022.0
ACE Basin NERRS  1845   62     180/  2     1023.0F
Fort Pulaski     1900   61 46  160/  4/  5 1023.6
Sapelo Island    1900   65     110/  5     1023.0

$$

ANZ835-935-AMZ111-154-330-350-352-354-370-450-454-472-212000-
...C-MAN and Buoy Observations...

STATION/POSITION TIME  TEMP    WIND        PRES    WAVE   SWELL
                       AIR SEA DIR/SP/G            HT/PER HT/PER/DIR
                 (UTC) (F)     (DEG/KT/KT) (MB)    (FT/S) (FT/S/D)
Buoy 41004       1900   62     220/  4/  6 1023.3
Buoy 41008       1850   54 53   CALM  /  2 1023.6F   1/11   2/100/11
Folly Beach CMAN 1900   53     180/  6/  6 1024.2F
Capers Nearshore 1908   52 50  190/  2/  4 1023.4F
Fripp Nearshore  1908   51 47  230/  4/  6 1022.8F


STATION/POSITION TIME  TEMP    WIND        PRES    WAVE   SWELL
                       AIR SEA DIR/SP/G            HT/PER HT/PER/DIR
                 (UTC) (F)     (DEG/KT/KT) (MB)    (FT/S) (FT/S/D)
5E St. Marys GA  1830      51                N/A     1/11   2/120/11
Frying Pan Buoy  1900   53 57  330/  2/  4 1023.7
Buoy 41025       1910   54 72  300/  6/  8 1023.2
Cape Lookout NC  1900          210/  5/  6 1023.4F
Buoy 41002       1850   66 70  310/  8/ 12 1023.6F   3/ 6   3/310/ 6
Buoy 41010       NOT AVBL
St Augustine FL  1900   54 52  350/  8/  9 1023.5F


$$




USA.gov is the U.S. government's official web portal to all federal, state and local government web resources and services.